Location: Unspecified
(0.0000°N, 0.0000°E)
Time: 13:48:53
(UTC+01:00)

Daily predictions for brighter satellites

Satellite Brightness Start Highest point End
(mag) Time Altitude Azimuth Time Altitude Azimuth Time Altitude Azimuth
BLOCK DM-SL R/B 4.1 19:02:58 10° W 19:07:29 75° N 19:50:22 10° E
BLOCK DM-SL R/B 4.1 19:02:58 10° W 19:07:29 75° N 19:50:21 10° E
BLOCK DM-SL R/B 4.1 19:02:57 10° W 19:07:29 75° N 19:50:22 10° E
BLOCK DM-SL R/B 4.1 19:02:57 10° W 19:07:30 75° N 19:50:22 10° E
Cosmos 1937 Rocket 3.5 19:31:17 10° N 19:36:27 67° ENE 19:41:42 10° SSE
Cosmos 1666 Rocket 4.1 19:35:10 10° SSE 19:39:10 37° E 19:43:09 10° NNE
Cosmos 2237 Rocket 4.3 19:36:01 10° SW 19:40:39 27° WNW 19:45:17 10° NNW
Ariane H10+ 3.0 19:31:13 10° W 19:41:09 81° S 19:44:14 10° E
Cosmos 1484 Rocket 3.7 19:38:24 10° S 19:42:05 52° W 19:45:49 10° NNW
Cosmos 2228 Rocket 3.6 19:37:55 10° N 19:42:18 67° W 19:46:47 10° S
Aureole 2 Rocket 4.2 19:40:05 10° SW 19:42:47 29° WNW 19:45:41 10° NNW
SL-16 R/B 2.4 19:37:54 10° SSW 19:43:34 80° WNW 19:49:12 10° NNE
ALOS 3.7 19:43:53 10° ESE 19:46:52 17° ENE 19:49:50 10° NE
BREEZE-M DEB (TANK) 3.4 19:44:58 10° WSW 19:46:57 25° NW 19:49:51 10° NNE
FALCON 9 R/B 3.1 19:37:32 10° NW 19:53:03 79° SW 19:57:29 10° SE
Meteor 1-29 3.5 19:52:05 10° NNE 19:55:15 36° ESE 19:58:25 10° S
Cosmos 1184 Rocket 3.1 19:53:57 10° S 19:57:15 48° E 20:00:31 10° NNE
Cosmos 773 Rocket 4.0 19:52:36 10° S 19:57:38 58° ESE 20:02:40 10° NNE
NOAA 12 4.0 19:54:57 10° SSE 20:00:09 67° ENE 20:05:20 10° N
Cosmos 1626 2.4 20:00:39 10° S 20:04:23 71° W 20:08:05 10° N
USA 102 3.6 20:05:59 25° NE 20:07:18 42° ESE 20:09:36 10° S
Helios 1B rocket 2.4 20:04:13 10° NNE 20:08:20 88° W 20:12:28 10° SSW
Cosmos 1470 Rocket 4.2 20:07:29 10° SSE 20:11:31 34° E 20:13:35 22° NE
FREGAT/IRIS 2.6 20:09:16 10° S 20:12:19 86° WSW 20:15:22 10° NNW
Skynet4D Del rocket 4.3 20:07:53 10° NW 20:14:19 53° NNE 20:20:09 17° E
ARIANE 44L R/B 2.9 20:12:47 10° WNW 20:15:21 22° N 20:15:37 22° N
SJ-6B 3.3 20:20:44 10° S 20:24:34 61° WSW 20:28:28 10° NNW
H-II Stage 2 3.4 20:10:23 10° SW 20:25:18 43° SSE 20:27:27 25° ESE
Cosmos 1943 4.0 20:23:21 10° SSE 20:28:07 28° ESE 20:28:41 28° E
H-2A R/B 3.8 20:24:37 10° SE 20:27:05 29° ESE 20:27:05 29° ESE
BREEZE-M DEB (TANK) 4.0 20:11:11 10° NW 20:29:39 68° NE 20:33:33 15° SE
Cosmos 1300 4.4 20:26:39 10° NNW 20:30:08 34° W 20:33:38 10° SSW
ARIANE DEB (SPELDA) 3.3 20:31:08 10° W 20:34:14 70° S 20:39:58 22° E
Spot 2 Rocket 3.4 20:31:39 10° SSE 20:36:42 66° ENE 20:41:42 10° N
Resurs 01 Rocket 1.5 20:35:16 10° SSE 20:39:44 81° ENE 20:43:59 11° N
Cosmos 1844 Rocket 3.0 20:35:11 10° NNW 20:40:45 68° WSW 20:46:18 10° S
HJ-1C 4.1 20:38:40 10° S 20:42:03 54° W 20:44:57 13° NNW
FENGYUN 3A 3.5 20:41:16 10° SSE 20:46:38 89° W 20:51:59 10° NNW
Cosmos 1603 4.1 20:41:46 10° SSW 20:47:21 60° WNW 20:51:04 21° N
Cosmos 1125 Rocket 3.4 20:43:05 10° NNW 20:48:16 90° NW 20:53:29 10° SSE
NOSS 3-1 (A) 3.2 20:48:23 10° S 20:53:53 55° ESE 20:54:06 54° ESE
USA 234 3.7 20:53:43 39° ESE 20:54:45 42° SE 21:00:48 10° SSW
Tiangong 1 3.8 20:53:41 10° W 20:54:45 13° WNW 20:54:45 13° WNW
Resurs 1-3 3.7 20:53:01 10° S 20:57:24 73° WSW 20:58:42 44° NNW
Cosmos 1680 Rocket 3.9 20:52:58 10° SSW 20:58:06 61° WNW 21:00:06 36° NNW
Intelsat 5-3 Rocket 4.1 20:51:16 10° SW 21:01:38 41° SSE 21:02:53 36° SE
Meteor 2-20 Rocket 4.3 20:59:13 10° S 21:05:15 69° E 21:05:19 69° E
ARIANE 5 R/B 3.3 20:29:22 10° W 21:05:16 69° N 21:06:25 58° NE
Cosmos 2026 Rocket 4.2 21:02:59 10° S 21:09:18 70° W 21:12:18 33° NNW
Cosmos 2278 Rocket 2.6 21:22:40 55° S 21:22:40 55° S 21:27:07 10° S
Aurora 2 Rocket 4.2 21:14:19 10° WSW 21:22:13 77° NNW 21:23:57 63° NE
Maqsat-B 4.4 21:28:16 10° WSW 21:31:01 28° SW 21:31:01 28° SW
NOSS 3-1 (C) 4.4 21:30:38 10° SW 21:35:41 34° WNW 21:35:49 34° WNW
